Home > Weather > Middlesbrough > Past weeks

Flag for United Kingdom Past Weather in Middlesbrough, England, United Kingdom — Yesterday and Last 2 Weeks

Now
50 °F

Sunny.


Feels Like: 49 °F
Forecast: 50 / 66 °F
Wind: 3 mph from Southwest

Location: Tees-Side

Current Time: Jun 25, 2016 at 8:07:25 AM

Latest Report: Jun 25, 2016 at 6:50 AM


Visibility: 10 mi

Pressure: 30.01 "Hg

Humidity: 88%

Dew Point: 46 °F

Location of MiddlesbroughLocation

Past Weather in Middlesbrough — Graph

°F

Middlesbrough Temperature Yesterday

Maximum temperature yesterday: 68 °F (at 1:20 PM)
Minimum temperature yesterday: 55 °F (at 5:50 AM)
Average temperature yesterday: 63 °F

High & Low Weather Summary for the Past Weeks

 TemperatureHumidityPressure
High73 °F (Jun 23, 2:50 PM)100% (Jun 12, 5:50 AM)30.18 "Hg (Jun 12, 5:50 AM)
Low48 °F (Jun 25, 5:50 AM)46% (Jun 20, 6:50 PM)29.36 "Hg (Jun 14, 3:20 PM)
Average60 °F78%29.80 "Hg
* Reported Jun 10 6:20 AM — Jun 25 6:50 AM, Middlesbrough, Weather by CustomWeather, © 2016

Note: Actual official high and low records may vary slightly from our data, if they occured in-between our weather recording intervals... More about our weather records

Advertising

Middlesbrough Weather History for the Previous 24 Hours

Scroll right to see more
 ConditionsComfort  
Time TempWeatherWind HumidityBarometerVisibility
6:50 AM
Sat, Jun 25
50 °FSunny.3 mph88%30.01 "Hg10 mi
6:20 AM50 °FSunny.6 mph82%30.01 "Hg10 mi
5:50 AM48 °FSunny.3 mph87%29.98 "Hg10 mi
9:50 PM
Fri, Jun 24
61 °FPassing clouds.7 mph63%29.98 "HgN/A
9:20 PM61 °FPassing clouds.7 mph72%29.98 "HgN/A
8:50 PM63 °FPassing clouds.8 mph68%29.98 "HgN/A
8:20 PM63 °FPassing clouds.7 mph64%29.95 "HgN/A
7:50 PM63 °FPassing clouds.8 mph64%29.95 "HgN/A
7:20 PM63 °FPassing clouds.8 mph64%29.95 "HgN/A
6:50 PM64 °FPassing clouds.9 mph60%29.95 "HgN/A
6:20 PM64 °FPassing clouds.9 mph56%29.95 "HgN/A
5:50 PM64 °FPassing clouds.12 mph56%29.95 "HgN/A
5:20 PM64 °FPassing clouds.10 mph60%29.95 "HgN/A
4:50 PM64 °FPassing clouds.12 mph60%29.95 "HgN/A
4:20 PM64 °FPassing clouds.13 mph60%29.95 "HgN/A
3:50 PM64 °FPassing clouds.10 mph60%29.95 "HgN/A
3:20 PM64 °FScattered clouds.13 mph60%29.95 "HgN/A
2:50 PM66 °FScattered clouds.15 mph56%29.95 "HgN/A
2:20 PM68 °FScattered clouds.12 mph53%29.95 "HgN/A
1:50 PM68 °FScattered clouds.13 mph53%29.95 "HgN/A
1:20 PM68 °FPassing clouds.12 mph56%29.95 "HgN/A
12:50 PM66 °FPartly sunny.9 mph60%29.95 "HgN/A
12:20 PM63 °FScattered clouds.9 mph77%29.95 "HgN/A
11:50 AM63 °FSprinkles. Scattered clouds.14 mph77%29.95 "HgN/A
11:20 AM66 °FScattered clouds.13 mph64%29.92 "HgN/A
10:50 AM64 °FScattered clouds.9 mph68%29.95 "HgN/A
10:20 AM64 °FScattered clouds.9 mph68%29.95 "HgN/A
9:50 AM63 °FScattered clouds.10 mph73%29.95 "HgN/A
9:20 AM63 °FScattered clouds.10 mph73%29.95 "HgN/A
8:50 AM63 °FScattered clouds.8 mph73%29.95 "HgN/A
8:20 AM63 °FPassing clouds.9 mph73%29.95 "HgN/A
Weather by CustomWeather, © 2016

See weather overviewHow to use our weather pages